Doha, Qatar

3:12 AM +03 on October 20, 2017 (GMT +0300)
Doha International

Weather History for OTBD - July, 2013

Change the Weather History Date:

Monday, July 22, 2013

  Actual Average Record
Temperature  
Mean Temperature 98 °F -  
Max Temperature 106 °F 106 °F 116 °F (2001)
Min Temperature 91 °F 84 °F 86 °F (1997)
Cooling Degree Days 34    
Growing Degree Days 48 (Base 50)    
Moisture  
Dew Point 70 °F    
Average Humidity 40    
Maximum Humidity 56    
Minimum Humidity 25    
Precipitation  
Precipitation 0.00 in 0.00 in - ()
Sea Level Pressure  
Sea Level Pressure 29.39 in    
Wind  
Wind Speed 8 mph ()    
Max Wind Speed 18 mph    
Max Gust Speed -    
Visibility 4.7 miles    
Events      
Averages and records for this station are not official NWS values.
T = Trace of Precipitation, MM = Missing Value Source: Averaged Metar Reports

Daily Weather History Graph

Daily Weather History Graph

Search for Another Location

Airport or City:

Trip Planner

Search our weather history database for the weather conditions in past years. The results will help you decide how hot, cold, wet, or windy it might be!

Date:

Astronomy

Jul. 22, 2013 Rise Set
Actual Time 4:56 AM +03 6:24 PM +03
Civil Twilight 4:30 AM +03 6:49 PM +03
Nautical Twilight 4:01 AM +03 7:18 PM +03
Astronomical Twilight 3:29 AM +03 7:50 PM +03
Moon 5:59 PM +03 (7/22) 4:20 AM +03 (7/22)
Length of Visible Light 14h 18m
Length of Day
13h 27m
Full, 100% of the Moon is Illuminated
Jul 22
Full
Jul 22
Full
Jul 29
Last Quarter
Aug 7
New
Aug 14
First Quarter

Hourly Weather History & Observations

Time (+03) Temp. Heat Index Dew Point Humidity Pressure Visibility Wind Dir Wind Speed Gust Speed Precip Events Conditions
12:00 AM 93.2 °F 105.0 °F 75.2 °F 56% 29.39 in - North 4.6 mph - N/A   Clear
12:30 AM 95.0 °F 103.2 °F 71.6 °F 47% 29.36 in - NNW 5.8 mph - N/A   Clear
1:00 AM 95.0 °F 103.2 °F 71.6 °F 47% 29.36 in - NW 4.6 mph - N/A   Clear
1:30 AM 93.2 °F 98.8 °F 69.8 °F 46% 29.36 in - NW 4.6 mph - N/A   Clear
2:00 AM 93.2 °F 98.8 °F 69.8 °F 46% 29.36 in - Variable 2.3 mph - N/A   Clear
2:30 AM 93.2 °F 97.7 °F 68.0 °F 44% 29.36 in - Variable 2.3 mph - N/A   Clear
3:00 AM 92 °F - 69 °F 37% 29.38 in 6 mi NW 4.6 mph - -  
3:00 AM 93.2 °F 97.7 °F 68.0 °F 44% 29.36 in - NW 4.6 mph - N/A   Clear
3:30 AM 91.4 °F 96.8 °F 69.8 °F 49% 29.36 in - NW 5.8 mph - N/A   Clear
4:00 AM 91.4 °F 98.4 °F 71.6 °F 52% 29.39 in - NW 6.9 mph - N/A   Clear
4:30 AM 91.4 °F 98.4 °F 71.6 °F 52% 29.39 in - WNW 4.6 mph - N/A   Clear
5:00 AM 91.4 °F 100.1 °F 73.4 °F 55% 29.39 in - NW 5.8 mph - N/A   Clear
5:30 AM 91.4 °F 98.4 °F 71.6 °F 52% 29.39 in - WNW 4.6 mph - N/A   Clear
6:00 AM 93.2 °F 102.4 °F 73.4 °F 52% 29.39 in - NW 5.8 mph - N/A   Clear
6:30 AM 93.2 °F 100.5 °F 71.6 °F 49% 29.39 in - NW 5.8 mph - N/A   Clear
7:00 AM 95.0 °F 101.3 °F 69.8 °F 44% 29.42 in - NNW 5.8 mph - N/A   Clear
7:30 AM 96.8 °F 101.8 °F 68.0 °F 39% 29.42 in - NNW 10.4 mph - N/A   Clear
8:00 AM 98.6 °F 104.1 °F 68.0 °F 37% 29.39 in - NNW 11.5 mph - N/A   Clear
8:30 AM 98.6 °F 105.5 °F 69.8 °F 39% 29.42 in - NNW 11.5 mph - N/A   Clear
9:00 AM 100 °F - 70 °F 29% 29.42 in 6 mi North 11.5 mph - -   Widespread Dust
9:00 AM 100.4 °F 107.8 °F 69.8 °F 37% 29.42 in 5.6 mi North 11.5 mph - N/A   Unknown
9:30 AM 102.2 °F 111.7 °F 71.6 °F 37% 29.42 in 5.6 mi North 11.5 mph - N/A   Unknown
10:00 AM 102.2 °F 114.4 °F 73.4 °F 40% 29.42 in - North 13.8 mph - N/A   Clear
10:30 AM 102.2 °F 116.3 °F 75.2 °F 42% 29.42 in - North 13.8 mph - N/A   Clear
11:00 AM 102.2 °F 114.4 °F 73.4 °F 40% 29.42 in - North 11.5 mph - N/A   Clear
11:30 AM 104.0 °F 110.5 °F 68.0 °F 31% 29.42 in - North 13.8 mph - N/A   Clear
12:00 PM 104.0 °F 108.9 °F 66.2 °F 29% 29.39 in - North 13.8 mph - N/A   Clear
12:30 PM 104.0 °F 108.9 °F 66.2 °F 29% 29.39 in - NNE 15.0 mph - N/A   Clear
1:00 PM 105.8 °F 109.8 °F 64.4 °F 26% 29.39 in - NNE 16.1 mph - N/A   Clear
1:30 PM 104.0 °F 108.9 °F 66.2 °F 29% 29.39 in - NNE 16.1 mph - N/A   Clear
2:00 PM 104.0 °F 110.5 °F 68.0 °F 31% 29.36 in - NNE 16.1 mph - N/A   Clear
2:30 PM 104.0 °F 112.2 °F 69.8 °F 33% 29.36 in - NNE 17.3 mph - N/A   Clear
3:00 PM 103 °F - 70 °F 25% 29.37 in 6 mi NNE 18.4 mph - -  
3:00 PM 104.0 °F 112.2 °F 69.8 °F 33% 29.36 in - NNE 18.4 mph - N/A   Clear
3:30 PM 102.2 °F 114.4 °F 73.4 °F 40% 29.36 in - NNE 16.1 mph - N/A   Clear
4:00 PM 102.2 °F 116.3 °F 75.2 °F 42% 29.36 in - North 16.1 mph - N/A   Clear
4:30 PM 100.4 °F 116.5 °F 77.0 °F 47% 29.36 in 5.0 mi NNE 16.1 mph - N/A   Unknown
5:00 PM 98.6 °F 111.7 °F 75.2 °F 47% 29.36 in 5.0 mi North 16.1 mph - N/A   Unknown
5:30 PM 98.6 °F 111.7 °F 75.2 °F 47% 29.36 in 4.3 mi North 15.0 mph - N/A   Unknown
6:00 PM 98.6 °F 114.4 °F 77.0 °F 50% 29.36 in 4.3 mi North 15.0 mph - N/A   Unknown
6:30 PM 96.8 °F 112.2 °F 77.0 °F 53% 29.39 in 3.7 mi North 13.8 mph - N/A   Unknown
7:00 PM 96.8 °F 112.2 °F 77.0 °F 53% 29.39 in 3.7 mi North 12.7 mph - N/A   Unknown
7:30 PM 98.6 °F 102.8 °F 66.2 °F 35% 29.39 in 4.3 mi North 12.7 mph - N/A   Unknown
8:00 PM 98.6 °F 104.1 °F 68.0 °F 37% 29.42 in 4.3 mi NNW 10.4 mph - N/A   Unknown
8:30 PM 98.6 °F 102.8 °F 66.2 °F 35% 29.42 in 4.3 mi NNW 10.4 mph - N/A   Unknown
9:00 PM 98 °F - 65 °F 25% 29.44 in 4 mi NNW 8.1 mph - -   Widespread Dust
9:00 PM 98.6 °F 102.8 °F 66.2 °F 35% 29.42 in 4.3 mi NNW 8.1 mph - N/A   Unknown
9:30 PM 98.6 °F 101.0 °F 64.4 °F 32% 29.42 in 4.3 mi NNW 8.1 mph - N/A   Unknown
10:00 PM 96.8 °F 98.0 °F 62.6 °F 32% 29.42 in 4.3 mi NNW 8.1 mph - N/A   Unknown
10:30 PM 96.8 °F 99.0 °F 64.4 °F 34% 29.42 in 4.3 mi NNW 6.9 mph - N/A   Unknown
11:00 PM 96.8 °F 98.0 °F 62.6 °F 32% 29.42 in 5.0 mi NNW 6.9 mph - N/A   Unknown
11:30 PM 96.8 °F 99.0 °F 64.4 °F 34% 29.39 in 5.0 mi North 5.8 mph - N/A   Unknown